Location: ??????
(56.0120°N, 39.1740°E)
Time: 22:09:42
(UTC+00:00)

Cosmos 1943 Rocket - Pass Details

Date: 14 April 2026
Orbit: 809 x 844 km, 71.0° (Epoch: 13 May)

Event Time Altitude Azimuth Distance (km) Brightness Sun altitude
Rises 17:20:34 0° 325° (NW) 3,414 6.7 -7.5°
Reaches altitude 10° 17:23:01 10° 324° (NW) 2,476 5.9 -7.8°
Maximum altitude 17:28:43 80° 239° (WSW) 862 2.3 -8.5°
Drops below altitude 10° 17:34:22 10° 153° (SSE) 2,456 4.1 -9.2°
Enters shadow 17:34:59 - 153° (SSE) 2,686 4.3 -9.2°
